| time (UTC) | temp C | wind direction | speed KPH | gust KPH | rain 1hr cm | rain 24hr cm | rain mn cm | humidity % | barometer mb |
| 20260510153120 | 27 | 150 | 0.0 | 3.2 | 0.00 | 0.03 | 0.00 | 68 | 1010.6 |
| 20260510151120 | 26 | 195 | 1.6 | 8.0 | 0.00 | 0.03 | 0.00 | 71 | 1010.5 |
| 20260510150120 | 26 | 192 | 1.6 | 4.8 | 0.00 | 0.03 | 0.00 | 72 | 1010.4 |
| 20260510145120 | 26 | 184 | 3.2 | 6.4 | 0.00 | 0.03 | 0.00 | 73 | 1010.5 |
| 20260510144120 | 25 | 196 | 3.2 | 8.0 | 0.00 | 0.03 | 0.00 | 74 | 1010.5 |
| 20260510143120 | 25 | 185 | 4.8 | 11.3 | 0.00 | 0.03 | 0.00 | 75 | 1010.4 |
| 20260510141120 | 24 | 190 | 1.6 | 8.0 | 0.00 | 0.03 | 0.00 | 80 | 1010.5 |
| 20260510140120 | 23 | 187 | 1.6 | 8.0 | 0.00 | 0.03 | 0.00 | 81 | 1010.6 |
| 20260510134121 | 22 | 198 | 1.6 | 4.8 | 0.00 | 0.03 | 0.00 | 84 | 1010.7 |
| 20260510132120 | 21 | 235 | 0.0 | 1.6 | 0.00 | 0.03 | 0.00 | 84 | 1010.6 |
| 20260510131120 | 21 | 197 | 0.0 | 3.2 | 0.00 | 0.03 | 0.00 | 84 | 1010.6 |
| 20260510124120 | 20 | 0 | 0.0 | 0.0 | 0.00 | 0.03 | 0.00 | 86 | 1010.4 |
| 20260510123121 | 20 | 239 | 0.0 | 1.6 | 0.00 | 0.03 | 0.00 | 86 | 1010.4 |
| 20260510121121 | 20 | 0 | 0.0 | 0.0 | 0.00 | 0.08 | 0.00 | 84 | 1010.3 |
| 20260510120120 | 20 | 231 | 0.0 | 0.0 | 0.00 | 0.08 | 0.00 | 84 | 1010.3 |
| 20260510115121 | 20 | 0 | 0.0 | 0.0 | 0.00 | 0.08 | 0.00 | 84 | 1010.2 |
| 20260510113120 | 20 | 0 | 0.0 | 0.0 | 0.00 | 0.08 | 0.00 | 83 | 1010.2 |
| 20260510112121 | 21 | 0 | 0.0 | 0.0 | 0.00 | 0.08 | 0.00 | 83 | 1010.1 |
| 20260510111120 | 21 | 0 | 0.0 | 0.0 | 0.00 | 0.08 | 0.00 | 81 | 1010.1 |
| 20260510110120 | 21 | 0 | 0.0 | 0.0 | 0.00 | 0.08 | 0.00 | 81 | 1010.2 |
| 20260510105120 | 21 | 0 | 0.0 | 0.0 | 0.00 | 0.08 | 0.00 | 81 | 1010.1 |
| 20260510104121 | 21 | 0 | 0.0 | 0.0 | 0.00 | 0.08 | 0.00 | 80 | 1010.2 |
| 20260510102120 | 21 | 0 | 0.0 | 0.0 | 0.00 | 0.08 | 0.00 | 80 | 1010.3 |
| 20260510100121 | 21 | 0 | 0.0 | 0.0 | 0.00 | 0.08 | 0.00 | 78 | 1010.1 |
| 20260510093120 | 22 | 0 | 0.0 | 0.0 | 0.00 | 0.08 | 0.00 | 77 | 1009.8 |
| 20260510092120 | 22 | 0 | 0.0 | 0.0 | 0.00 | 0.08 | 0.00 | 77 | 1009.5 |
| 20260510091120 | 22 | 0 | 0.0 | 0.0 | 0.00 | 0.08 | 0.00 | 77 | 1009.5 |
| 20260510085120 | 22 | 0 | 0.0 | 0.0 | 0.00 | 0.08 | 0.00 | 75 | 1009.5 |
| 20260510083120 | 22 | 0 | 0.0 | 0.0 | 0.00 | 0.08 | 0.00 | 73 | 1009.4 |
| 20260510082121 | 23 | 0 | 0.0 | 0.0 | 0.00 | 0.08 | 0.00 | 73 | 1009.4 |
| 20260510080120 | 23 | 0 | 0.0 | 0.0 | 0.00 | 0.08 | 0.00 | 71 | 1009.3 |
| 20260510075120 | 23 | 0 | 0.0 | 0.0 | 0.00 | 0.08 | 0.00 | 70 | 1009.1 |
| 20260510073122 | 24 | 207 | 0.0 | 1.6 | 0.00 | 0.08 | 0.00 | 69 | 1009.1 |
| 20260510072120 | 24 | 191 | 0.0 | 3.2 | 0.00 | 0.08 | 0.00 | 68 | 1009.2 |
| 20260510071120 | 24 | 162 | 0.0 | 3.2 | 0.00 | 0.08 | 0.00 | 68 | 1009.2 |
| 20260510070121 | 25 | 190 | 0.0 | 4.8 | 0.00 | 0.08 | 0.00 | 68 | 1009.2 |
| 20260510065120 | 25 | 189 | 1.6 | 8.0 | 0.00 | 0.08 | 0.00 | 68 | 1009.1 |
| 20260510064120 | 25 | 181 | 0.0 | 6.4 | 0.00 | 0.08 | 0.00 | 69 | 1009.1 |
| 20260510063120 | 25 | 195 | 0.0 | 3.2 | 0.00 | 0.08 | 0.00 | 69 | 1009.3 |
| 20260510061121 | 25 | 194 | 0.0 | 3.2 | 0.00 | 0.08 | 0.00 | 68 | 1009.3 |
| 20260510060120 | 25 | 210 | 0.0 | 0.0 | 0.00 | 0.08 | 0.00 | 66 | 1009.2 |
| 20260510055120 | 26 | 182 | 0.0 | 3.2 | 0.00 | 0.08 | 0.00 | 66 | 1009.1 |
| 20260510051120 | 26 | 192 | 1.6 | 9.7 | 0.00 | 0.08 | 0.00 | 64 | 1008.5 |
| 20260510045120 | 26 | 183 | 1.6 | 12.9 | 0.00 | 0.08 | 0.08 | 62 | 1008.3 |
| 20260510043120 | 26 | 196 | 0.0 | 6.4 | 0.00 | 0.08 | 0.08 | 62 | 1008.3 |
| 20260510040121 | 26 | 197 | 0.0 | 1.6 | 0.00 | 0.08 | 0.08 | 62 | 1008.0 |
| 20260510035120 | 26 | 211 | 0.0 | 0.0 | 0.00 | 0.08 | 0.08 | 62 | 1007.9 |
| 20260510031120 | 27 | 0 | 0.0 | 0.0 | 0.00 | 0.08 | 0.08 | 58 | 1007.5 |
| 20260510030121 | 28 | 0 | 0.0 | 0.0 | 0.00 | 0.08 | 0.08 | 57 | 1007.4 |
| 20260510025120 | 28 | 0 | 0.0 | 0.0 | 0.00 | 0.08 | 0.08 | 56 | 1007.4 |
| 20260510024120 | 28 | 208 | 0.0 | 0.0 | 0.00 | 0.08 | 0.08 | 56 | 1007.1 |
| 20260510023120 | 28 | 214 | 0.0 | 1.6 | 0.00 | 0.08 | 0.08 | 55 | 1007.0 |
| 20260510022120 | 28 | 197 | 0.0 | 1.6 | 0.00 | 0.08 | 0.08 | 55 | 1006.9 |
| 20260510021121 | 28 | 195 | 0.0 | 3.2 | 0.00 | 0.08 | 0.08 | 55 | 1006.8 |
| 20260510020120 | 29 | 181 | 0.0 | 8.0 | 0.00 | 0.08 | 0.08 | 53 | 1006.6 |
| 20260510015120 | 29 | 195 | 0.0 | 3.2 | 0.00 | 0.08 | 0.08 | 53 | 1006.5 |
| 20260510014121 | 29 | 195 | 0.0 | 3.2 | 0.00 | 0.08 | 0.08 | 52 | 1006.2 |
| 20260510013120 | 29 | 185 | 0.0 | 3.2 | 0.00 | 0.08 | 0.08 | 50 | 1005.9 |
| 20260510012120 | 30 | 196 | 0.0 | 6.4 | 0.00 | 0.08 | 0.08 | 50 | 1005.8 |
| 20260510011121 | 30 | 196 | 0.0 | 4.8 | 0.00 | 0.08 | 0.08 | 49 | 1005.6 |
| 20260510010120 | 30 | 186 | 0.0 | 3.2 | 0.00 | 0.08 | 0.08 | 49 | 1005.4 |
| 20260510005120 | 30 | 187 | 1.6 | 6.4 | 0.00 | 0.08 | 0.08 | 49 | 1005.3 |
| 20260510003121 | 31 | 190 | 3.2 | 9.7 | 0.00 | 0.08 | 0.08 | 47 | 1004.9 |
| 20260510001621 | 31 | 190 | 1.6 | 8.0 | 0.00 | 0.08 | 0.08 | 47 | 1004.8 |
| 20260510000621 | 31 | 186 | 4.8 | 9.7 | 0.00 | 0.08 | 0.08 | 46 | 1004.9 |
| 20260509235622 | 31 | 187 | 1.6 | 9.7 | 0.00 | 0.08 | 0.08 | 46 | 1004.9 |
| 20260509233621 | 31 | 193 | 0.0 | 4.8 | 0.00 | 0.08 | 0.08 | 46 | 1005.0 |
| 20260509232621 | 31 | 188 | 1.6 | 6.4 | 0.00 | 0.08 | 0.08 | 46 | 1005.0 |
| 20260509231621 | 31 | 193 | 1.6 | 4.8 | 0.00 | 0.08 | 0.08 | 45 | 1005.0 |
| 20260509230621 | 31 | 78 | 0.0 | 3.2 | 0.00 | 0.08 | 0.08 | 42 | 1004.9 |
| 20260509225620 | 31 | 183 | 0.0 | 4.8 | 0.00 | 0.08 | 0.08 | 45 | 1004.8 |
| 20260509223621 | 32 | 218 | 0.0 | 4.8 | 0.00 | 0.08 | 0.08 | 45 | 1004.8 |
| 20260509222621 | 32 | 186 | 1.6 | 6.4 | 0.00 | 0.08 | 0.08 | 43 | 1004.8 |
| 20260509221621 | 32 | 211 | 0.0 | 4.8 | 0.00 | 0.08 | 0.08 | 44 | 1004.8 |
| 20260509220621 | 32 | 211 | 1.6 | 6.4 | 0.00 | 0.08 | 0.08 | 46 | 1004.9 |
| 20260509215620 | 32 | 191 | 1.6 | 6.4 | 0.00 | 0.08 | 0.08 | 45 | 1004.9 |
| 20260509214621 | 32 | 211 | 1.6 | 4.8 | 0.00 | 0.08 | 0.08 | 44 | 1005.0 |
| 20260509213621 | 31 | 227 | 0.0 | 3.2 | 0.00 | 0.08 | 0.08 | 45 | 1005.0 |
| 20260509212620 | 31 | 199 | 1.6 | 4.8 | 0.00 | 0.08 | 0.08 | 45 | 1005.2 |
| 20260509211621 | 32 | 195 | 1.6 | 8.0 | 0.00 | 0.08 | 0.08 | 45 | 1005.3 |
| 20260509210620 | 32 | 190 | 3.2 | 8.0 | 0.00 | 0.08 | 0.08 | 45 | 1005.4 |
| 20260509205620 | 31 | 217 | 0.0 | 4.8 | 0.00 | 0.08 | 0.08 | 46 | 1005.5 |
| 20260509204622 | 31 | 184 | 3.2 | 9.7 | 0.00 | 0.08 | 0.08 | 47 | 1005.7 |
| 20260509203621 | 31 | 201 | 3.2 | 8.0 | 0.00 | 0.08 | 0.08 | 48 | 1005.9 |
| 20260509202621 | 31 | 228 | 1.6 | 4.8 | 0.00 | 0.08 | 0.08 | 51 | 1006.1 |
| 20260509201621 | 31 | 185 | 3.2 | 8.0 | 0.00 | 0.08 | 0.08 | 51 | 1006.4 |
| 20260509200621 | 31 | 186 | 1.6 | 8.0 | 0.00 | 0.08 | 0.08 | 52 | 1006.5 |
| 20260509195621 | 31 | 206 | 1.6 | 8.0 | 0.00 | 0.08 | 0.08 | 53 | 1006.7 |
| 20260509194621 | 31 | 186 | 1.6 | 8.0 | 0.00 | 0.08 | 0.08 | 55 | 1007.0 |
| 20260509193621 | 31 | 223 | 0.0 | 6.4 | 0.00 | 0.08 | 0.08 | 56 | 1007.1 |
| 20260509191621 | 30 | 247 | 1.6 | 4.8 | 0.00 | 0.08 | 0.08 | 58 | 1007.3 |
| 20260509190621 | 30 | 245 | 1.6 | 6.4 | 0.00 | 0.08 | 0.08 | 58 | 1007.4 |
| 20260509185620 | 30 | 204 | 1.6 | 6.4 | 0.00 | 0.08 | 0.08 | 56 | 1007.4 |
| 20260509184621 | 30 | 213 | 1.6 | 8.0 | 0.00 | 0.08 | 0.08 | 59 | 1007.5 |
| 20260509183620 | 30 | 213 | 3.2 | 12.9 | 0.00 | 0.08 | 0.08 | 59 | 1007.7 |
| 20260509182621 | 29 | 196 | 1.6 | 6.4 | 0.00 | 0.08 | 0.08 | 58 | 1007.7 |
| 20260509181620 | 29 | 209 | 1.6 | 6.4 | 0.00 | 0.08 | 0.08 | 58 | 1008.0 |
| 20260509180621 | 29 | 192 | 3.2 | 11.3 | 0.00 | 0.08 | 0.08 | 60 | 1008.2 |
| 20260509175620 | 28 | 204 | 3.2 | 11.3 | 0.00 | 0.08 | 0.08 | 64 | 1008.3 |
| 20260509174621 | 28 | 226 | 1.6 | 8.0 | 0.00 | 0.08 | 0.08 | 66 | 1008.4 |
| 20260509173621 | 28 | 221 | 1.6 | 6.4 | 0.00 | 0.08 | 0.08 | 70 | 1008.6 |
| 20260509172621 | 27 | 205 | 1.6 | 9.7 | 0.00 | 0.08 | 0.08 | 73 | 1008.7 |
| 20260509171621 | 27 | 203 | 1.6 | 8.0 | 0.00 | 0.08 | 0.08 | 73 | 1008.9 |
| 20260509170622 | 27 | 222 | 1.6 | 3.2 | 0.00 | 0.08 | 0.08 | 77 | 1008.9 |
| 20260509165621 | 26 | 233 | 1.6 | 3.2 | 0.00 | 0.08 | 0.08 | 80 | 1009.0 |
| 20260509164622 | 26 | 197 | 1.6 | 6.4 | 0.00 | 0.08 | 0.08 | 83 | 1009.0 |
| 20260509162620 | 25 | 213 | 1.6 | 4.8 | 0.03 | 0.08 | 0.08 | 87 | 1009.0 |
| 20260509160621 | 25 | 217 | 1.6 | 6.4 | 0.03 | 0.08 | 0.08 | 91 | 1009.5 |
| 20260509155621 | 25 | 178 | 1.6 | 8.0 | 0.03 | 0.08 | 0.08 | 93 | 1009.6 |
| 20260509154621 | 24 | 213 | 0.0 | 1.6 | 0.00 | 0.05 | 0.05 | 94 | 1009.9 |